Location: Mittersill
(44.1801°N, 71.7142°W)
Time: 02:59:00
(UTC+00:00)

ATLAS CENTAUR R/B - Pass Details

Date: 10 September 2024
Orbit: 194 x 1605 km, 57.1° (Epoch: 04 October)

Event Time Altitude Azimuth Distance (km) Brightness Sun altitude
Rises 23:21:39 0° 309° (NW) 2,782 6.6 -3.7°
Reaches altitude 10° 23:23:31 10° 307° (NW) 2,071 6.0 -4.0°
Maximum altitude 23:28:17 69° 225° (SW) 947 3.2 -4.9°
Drops below altitude 10° 23:35:49 10° 144° (SE) 3,217 5.3 -6.2°
Enters shadow 23:40:41 -3° 142° (SE) 4,933 6.2 -7.0°
